Webcam Zuidwest  Webcam Zuidwest


waarschuwing voor Onweer more information blitzortung!


Regen radar more information rain snow radar


Weerstation Alkmaar Centrum

Weerstation Luyksgestel

Website Noardburgum


U vindt ons ook hier:

Het Weer Aktueel

UK Metoffice

European Weather Network

Weather Underground

AWEKAS

Citizen Weather Observer Program (CWOP)

HAMweather, WeatherForYou, PWS Weather



Onweer van: 25-07-2021 14:00 tot: 23:00 waarschuwing voor: Onweer niveau: Geel info button
IFRIESLA82 History tables / reports. Script startWUhistory.php

Select another period ( hide this area )

Eenheden Periode Custom range Directly to
Metrisch Engels Beide
Dagelijkse Wekelijkse Maandelijkse Jaarlijkse
use both date-selectors for a custom range
previous Dag
With this date

WeatherUnderground graphs for this period ( click here ) Loading the graph can take up to a minute!


Dagelijkse Samenvatting Zondag Jul 25 2021
Tijd Temp. ( °C ) Dew pt. ( °C ) Wind ( km/h ) van Windvlaag ( km/h ) Luchtdruk ( hPa ) Humid.( % ) Rainrate ( cm ) Zonneschijn ( W/m2 )
Hoog25,6 19,9 18,0 ZW ( 725/2052 ) 26,0 1007,8 97 28,96 916
Gemiddeld20,2 18,0 9,5 ZW #69/215 13,3 1005,9 88 17,70 402 #137/215
Laag17,2 16,4 -   2,0 1004,4 66 -  
Dagelijkse Tabular details for Zondag Jul 25 2021
Tijd Temp. ( °C ) Dew pt. ( °C ) Wind ( km/h ) van Windvlaag ( km/h ) Luchtdruk ( hPa ) Humid.( % ) Rainrate ( cm ) Zonneschijn ( W/m2 )
00:04 19,1 17,8 3,0 ZZO 3,0 1007,8 93 2,03 -
00:09 19,1 17,9 1,0 ZZO 3,0 1007,8 93 2,29 -
00:14 18,9 17,7 3,0 ZZO 3,0 1007,8 93 2,29 -
00:19 18,9 17,7 3,0 Zuiden 3,0 1007,5 93 2,54 -
00:24 18,8 17,6 3,0 ZW 5,0 1007,5 93 2,54 -
00:29 18,8 17,6 3,0 ZW 3,0 1007,1 93 2,29 -
00:34 18,8 17,6 3,0 ZW 5,0 1007,1 93 2,29 -
00:39 18,7 17,5 3,0 ZW 3,0 1007,1 93 2,29 -
00:44 18,7 17,7 3,0 Westen 5,0 1006,8 94 2,29 -
00:49 18,7 17,7 3,0 Westen 5,0 1006,8 94 2,03 -
00:54 18,6 17,6 3,0 WZW 6,0 1006,8 94 1,78 -
00:59 18,6 17,6 5,0 Westen 6,0 1006,8 94 1,52 -
01:04 18,6 17,6 6,0 WNW 6,0 1006,8 94 1,27 -
01:09 18,6 17,6 3,0 WNW 5,0 1006,8 94 1,02 -
01:14 18,6 17,6 1,0 WNW 3,0 1006,8 94 0,76 -
01:19 18,5 17,5 1,0 WNW 3,0 1006,8 94 0,51 -
01:24 18,6 17,6 3,0 WNW 3,0 1006,8 94 0,51 -
01:29 18,5 17,5   Windstil 3,0 1006,8 94 0,76 -
01:34 18,5 17,5 1,0 WNW 2,0 1006,8 94 0,76 -
01:39 18,6 17,6 3,0 WNW 5,0 1006,8 94 0,76 -
01:44 18,5 17,5 5,0 WNW 5,0 1006,4 94 1,02 -
01:49 18,4 17,4 5,0 WNW 6,0 1006,4 94 1,02 -
01:54 18,5 17,7 5,0 NW 6,0 1006,4 95 1,02 -
01:59 18,5 17,5 1,0 NW 3,0 1006,4 94 1,02 -
02:04 18,5 17,5 3,0 NW 3,0 1006,4 94 1,02 -
02:09 18,4 17,6 5,0 NW 5,0 1006,1 95 1,27 -
02:14 18,4 17,6 3,0 WNW 6,0 1006,1 95 1,52 -
02:19 18,4 17,6 6,0 NW 8,0 1005,8 95 1,52 -
02:24 18,3 17,5 8,0 NNW 8,0 1005,8 95 1,78 -
02:29 18,3 17,5 6,0 NW 8,0 1005,8 95 2,03 -
02:34 18,3 17,5 6,0 NW 8,0 1005,8 95 2,03 -
02:39 18,2 17,2 13,0 NNW 13,0 1005,8 94 1,78 -
02:44 18,2 17,2 6,0 WNW 13,0 1005,8 94 1,78 -
02:49 18,2 17,2 13,0 NW 15,0 1005,8 94 1,78 -
02:54 18,2 17,4 14,0 NW 15,0 1005,8 95 2,03 -
02:59 18,3 17,5 14,0 NW 18,0 1005,8 95 2,29 -
03:04 18,3 17,5 14,0 NW 16,0 1005,8 95 2,29 -
03:09 18,3 17,5 11,0 NW 15,0 1005,4 95 2,29 -
03:14 18,4 17,6 13,0 NW 13,0 1005,4 95 2,29 -
03:19 18,3 17,5 10,0 WNW 19,0 1005,1 95 2,29 -
03:24 18,3 17,5 14,0 NW 18,0 1005,1 95 1,78 -
03:29 18,3 17,5 11,0 WNW 21,0 1005,1 95 1,52 -
03:34 18,3 17,5 11,0 NW 21,0 1004,7 95 1,27 -
03:39 18,4 17,6 10,0 NNW 15,0 1005,1 95 1,78 -
03:44 18,4 17,6 6,0 NW 15,0 1005,1 95 3,30 -
03:49 18,4 17,6 10,0 WNW 10,0 1005,1 95 4,83 -
03:54 18,3 17,5 13,0 WNW 15,0 1004,7 95 5,08 -
03:59 18,3 17,5 8,0 NW 16,0 1004,7 95 5,33 -
04:04 18,3 17,5 8,0 WNW 13,0 1004,4 95 5,59 -
04:09 18,3 17,5 13,0 WNW 16,0 1004,4 95 5,59 -
04:14 18,3 17,5 11,0 WNW 15,0 1004,4 95 5,84 -
04:19 18,3 17,5 10,0 WNW 11,0 1004,4 95 5,84 -
04:24 18,2 17,4 6,0 Westen 11,0 1004,4 95 6,35 -
04:29 18,2 17,4 3,0 NNW 11,0 1004,7 95 6,60 -
04:34 18,2 17,4 5,0 Westen 6,0 1004,7 95 7,11 -
04:39 18,2 17,4 3,0 ZW 6,0 1004,7 95 7,37 -
04:44 18,2 17,4 11,0 ZZW 11,0 1004,7 95 7,37 -
04:49 18,1 17,5 10,0 ZZW 13,0 1004,7 96 7,87 -
04:54 18,1 17,5 11,0 ZZW 15,0 1004,7 96 8,89 -
04:59 18,1 17,5 18,0 ZW 18,0 1004,7 96 10,41 -
05:04 17,9 17,1 13,0 WZW 18,0 1004,7 95 11,94 -
05:09 17,6 16,8 16,0 ZW 21,0 1004,7 95 13,72 -
05:14 17,3 16,5 16,0 ZW 18,0 1004,4 95 15,49 -
05:19 17,2 16,4 13,0 ZW 16,0 1004,4 95 17,02 -
05:24 17,2 16,6 11,0 ZW 16,0 1004,7 96 18,29 -
05:29 17,2 16,6 14,0 WZW 18,0 1004,7 96 20,83 -
05:34 17,3 16,7 11,0 ZW 18,0 1004,7 96 23,11 -
05:39 17,3 16,7 14,0 WZW 18,0 1004,7 96 25,40 -
05:44 17,3 16,7 14,0 ZW 18,0 1004,7 96 26,92 -
05:49 17,3 16,7 13,0 WZW 21,0 1004,4 96 27,69 -
05:54 17,3 16,7 11,0 WZW 21,0 1004,4 96 27,69 -
05:59 17,2 16,6 13,0 WZW 26,0 1004,4 96 27,69 -
06:04 17,2 16,6 10,0 WZW 18,0 1004,7 96 28,19 -
06:09 17,3 16,7 8,0 WZW 18,0 1004,7 96 28,70 -
06:14 17,3 16,7 10,0 Westen 16,0 1004,4 96 28,19 -
06:19 17,4 16,8 10,0 NW 16,0 1004,4 96 27,94 -
06:24 17,4 16,6 18,0 NW 19,0 1004,4 95 28,96 -
06:29 17,5 16,9 14,0 WNW 19,0 1004,4 96 28,45 -
06:34 17,6 17,0 14,0 WNW 18,0 1004,4 96 28,45 5
06:39 17,6 17,0 14,0 WNW 18,0 1004,4 96 28,19 5
06:44 17,6 17,0 11,0 WNW 23,0 1004,4 96 27,94 7
06:49 17,5 16,9 14,0 WNW 19,0 1004,4 96 28,70 9
06:54 17,5 16,9 11,0 Westen 23,0 1004,4 96 28,96 11
06:59 17,5 16,9 6,0 Westen 23,0 1004,4 96 28,70 12
07:04 17,5 16,9 11,0 WZW 11,0 1004,4 96 27,94 12
07:09 17,6 17,0 6,0 WZW 11,0 1004,4 96 27,18 16
07:14 17,6 17,0 6,0 WZW 10,0 1004,4 96 27,18 21
07:19 17,6 17,0 10,0 WZW 10,0 1004,4 96 26,92 23
07:24 17,7 17,2 11,0 WZW 11,0 1004,4 97 25,91 18
07:29 17,8 17,2 6,0 WZW 13,0 1004,4 96 23,88 19
07:34 17,8 17,2 6,0 WNW 13,0 1004,4 96 22,10 11
07:39 17,8 17,2 5,0 WNW 11,0 1004,7 96 19,56 11
07:44 17,8 17,2 10,0 WNW 11,0 1004,7 96 17,78 12
07:49 17,8 17,2 6,0 WZW 15,0 1004,7 96 14,48 28
07:54 17,9 17,3 8,0 ZW 15,0 1004,7 96 10,92 32
07:59 17,9 17,3 11,0 WZW 11,0 1004,7 96 9,65 35
08:04 17,9 17,3 10,0 WZW 15,0 1004,7 96 8,13 39
08:09 17,9 17,3 14,0 WZW 15,0 1004,7 96 7,11 33
08:14 17,9 17,3 8,0 WZW 13,0 1004,7 96 5,33 25
08:19 17,9 17,3 10,0 WZW 10,0 1004,7 96 4,32 18
08:24 17,9 17,3 11,0 ZW 11,0 1004,7 96 3,56 23
08:29 17,9 17,3 13,0 ZW 13,0 1004,7 96 3,30 32
08:34 17,9 17,3 8,0 ZW 11,0 1004,7 96 3,05 42
08:39 17,9 17,3 8,0 WZW 13,0 1004,7 96 2,79 51
08:44 17,9 17,3 8,0 ZW 8,0 1004,7 96 2,79 63
08:49 17,9 17,3 8,0 ZW 8,0 1004,7 96 2,79 74
08:54 17,9 17,3 8,0 ZW 11,0 1004,7 96 3,05 83
08:59 17,9 17,3 13,0 ZW 15,0 1004,7 96 3,05 88
09:04 17,8 17,2 13,0 ZW 18,0 1004,7 96 2,79 105
09:09 17,8 17,2 8,0 ZW 13,0 1004,7 96 2,54 130
09:14 17,8 17,2 13,0 ZW 18,0 1004,7 96 2,29 144
09:19 17,8 17,2 14,0 ZW 16,0 1005,1 96 2,03 151
09:24 17,9 17,3 10,0 ZW 13,0 1005,1 96 1,78 144
09:29 17,9 17,3 13,0 ZW 16,0 1005,1 96 1,52 158
09:34 18,1 17,5 11,0 ZW 18,0 1005,1 96 1,52 183
09:39 18,1 17,5 11,0 ZW 16,0 1005,1 96 1,52 174
09:44 18,2 17,6 14,0 ZW 18,0 1005,1 96 1,27 156
09:49 18,3 17,7 10,0 WZW 13,0 1005,1 96 1,02 169
09:54 18,3 17,7 13,0 ZW 18,0 1005,1 96 0,76 190
09:59 18,4 17,8 8,0 ZW 13,0 1005,1 96 0,51 195
10:04 18,6 17,9 6,0 ZW 13,0 1005,4 96 0,51 179
10:09 18,6 17,9 8,0 ZW 18,0 1005,4 96 0,25 163
10:14 18,5 17,8 11,0 ZW 18,0 1005,4 96 0,25 200
10:19 18,7 18,0 10,0 ZW 15,0 1005,4 96 0,25 178
10:24 18,7 18,0 13,0 ZW 16,0 1005,8 96 - 142
10:29 18,7 17,9 13,0 ZW 15,0 1005,8 95 - 167
10:34 18,8 18,1 10,0 ZW 15,0 1005,8 96 - 250
10:39 19,0 18,2 13,0 ZZW 13,0 1005,8 96 - 292
10:44 19,2 18,4 11,0 WZW 15,0 1005,8 95 - 302
10:49 19,3 18,4 13,0 ZW 16,0 1005,8 95 - 308
10:54 19,3 18,3 13,0 ZW 21,0 1005,8 94 - 311
10:59 19,6 18,6 10,0 ZW 21,0 1005,8 95 - 297
11:04 19,7 18,7 10,0 ZW 15,0 1006,1 94 - 294
11:09 19,7 18,5 10,0 ZW 13,0 1006,1 93 - 313
11:14 19,9 18,7 11,0 ZW 15,0 1006,1 93 - 350
11:19 20,1 18,8 14,0 ZZW 18,0 1006,1 93 - 480
11:24 20,1 18,5 16,0 WZW 18,0 1006,1 91 - 531
11:29 20,2 18,7 11,0 WZW 16,0 1006,1 91 - 371
11:34 20,2 18,5 18,0 WZW 18,0 1006,1 90 - 388
11:39 20,4 18,8 10,0 ZW 10,0 1006,4 91 - 526
11:44 20,8 19,3 8,0 ZW 18,0 1006,4 91 - 526
11:49 20,8 18,9 10,0 ZW 16,0 1006,4 89 - 675
11:54 21,1 19,1 14,0 ZW 19,0 1006,4 89 - 675
11:59 21,3 19,1 13,0 ZW 16,0 1006,4 88 - 728
12:04 21,7 19,3 11,0 ZW 21,0 1006,4 87 - 837
12:09 21,7 19,3 11,0 ZW 21,0 1006,4 86 - 671
12:14 21,6 19,0 13,0 ZW 15,0 1006,4 85 - 916
12:19 21,6 19,0 13,0 ZW 15,0 1006,4 85 - 916
12:24 21,7 19,3 11,0 ZW 13,0 1006,4 86 - 853
12:29 21,9 19,0 10,0 ZZW 16,0 1006,4 84 - 840
12:34 21,9 19,1 13,0 Zuiden 18,0 1006,4 84 - 766
12:39 21,9 18,9 13,0 ZZW 18,0 1006,4 83 - 410
12:44 21,8 18,9 11,0 Westen 11,0 1006,4 84 - 369
12:49 21,8 19,1 5,0 ZW 10,0 1006,4 85 - 295
12:54 21,9 19,1 6,0 WZW 6,0 1006,4 84 - 664
12:59 22,1 19,3 6,0 WZW 10,0 1006,4 84 - 766
13:04 22,2 19,4 10,0 ZW 13,0 1006,4 84 - 784
13:09 22,6 19,6 10,0 ZW 16,0 1006,4 84 - 831
13:14 22,7 19,5 5,0 WZW 16,0 1006,4 82 - 788
13:19 23,1 19,9 16,0 ZW 18,0 1006,4 83 - 817
13:24 23,1 19,4 11,0 ZZW 18,0 1006,4 80 - 854
13:29 23,2 19,7 16,0 ZW 16,0 1006,4 81 - 824
13:34 23,3 19,5 10,0 ZW 16,0 1006,4 79 - 788
13:39 23,2 19,4 10,0 ZZW 11,0 1006,4 79 - 793
13:44 23,1 19,1 6,0 WZW 11,0 1006,4 78 - 791
13:49 23,5 19,1 13,0 WZW 13,0 1006,4 78 - 777
13:54 23,6 19,4 10,0 WZW 11,0 1006,4 78 - 788
13:59 23,7 19,2 11,0 ZW 11,0 1006,8 77 - 830
14:04 23,7 19,3 10,0 ZZW 13,0 1006,8 78 - 824
14:06 23,6 19,5 8,0 WZW 11,0 1006,8 78 - 802
14:29 24,3 19,4 8,0 ZZW 13,0 1006,8 74 - 786
14:34 24,5 19,7 10,0 ZW 13,0 1006,8 75 - 793
14:39 24,6 19,9 8,0 Zuiden 13,0 1006,8 75 - 793
14:44 24,2 19,6 13,0 ZW 16,0 1006,8 76 - 315
14:49 24,3 19,4 10,0 ZZW 13,0 1006,8 75 - 288
14:54 24,7 19,9 18,0 ZZW 19,0 1006,8 76 - 766
14:59 24,7 19,4 10,0 ZZW 18,0 1006,8 73 - 766
15:04 24,6 19,3 11,0 ZZW 16,0 1006,8 73 - 487
15:09 24,2 19,3 10,0 ZZW 15,0 1006,8 75 - 408
15:14 24,1 19,3 8,0 ZZW 10,0 1006,8 75 - 301
15:19 23,9 19,2 14,0 Zuiden 15,0 1006,8 75 - 367
15:24 24,0 19,0 11,0 ZZW 13,0 1007,1 74 - 476
15:29 24,6 19,6 8,0 ZZW 15,0 1007,1 76 - 881
15:34 24,9 19,3 16,0 ZZW 16,0 1007,1 72 - 817
15:39 25,2 19,5 11,0 ZZW 16,0 1007,1 71 - 817
15:44 25,4 19,5 13,0 ZW 16,0 1007,1 70 - 809
15:49 25,4 19,3 11,0 ZW 18,0 1007,1 69 - 765
15:54 25,4 19,3 14,0 Zuiden 18,0 1007,1 69 - 729
15:59 25,4 19,0 13,0 ZZO 18,0 1007,1 68 - 768
16:04 25,6 19,2 11,0 ZZW 18,0 1007,1 68 - 726
16:09 25,6 19,0 13,0 ZZW 16,0 1007,1 67 - 756
16:14 25,3 19,2 11,0 ZZW 16,0 1007,1 71 - 343
16:19 24,7 19,1 13,0 ZZW 15,0 1007,1 71 - 325
16:24 24,5 18,7 11,0 ZZW 11,0 1007,1 70 - 348
16:29 24,5 18,7 14,0 ZZW 16,0 1007,1 70 - 366
16:34 24,6 19,0 6,0 ZZW 11,0 1007,1 71 - 411
16:39 24,6 18,8 6,0 WZW 13,0 1007,1 70 - 406
16:44 25,1 19,2 6,0 ZZW 10,0 1007,1 70 - 830
16:49 25,3 19,1 10,0 ZZW 11,0 1007,1 69 - 464
16:54 25,3 18,5 10,0 Zuiden 11,0 1007,1 67 - 464
16:59 24,8 18,7 11,0 Zuiden 15,0 1007,1 69 - 283
17:04 24,6 19,0 6,0 Zuiden 8,0 1007,1 71 - 747
17:09 25,3 19,1 10,0 ZW 13,0 1007,1 71 - 747
17:14 25,5 18,9 8,0 ZW 10,0 1007,1 67 - 696
17:19 25,3 18,4 8,0 ZZW 13,0 1007,1 68 - 272
17:24 24,7 18,4 5,0 Zuiden 8,0 1007,1 68 - 343
17:29 24,6 18,4 8,0 Zuiden 11,0 1007,1 69 - 281
17:34 24,6 18,1 10,0 ZZW 10,0 1007,1 67 - 596
17:39 24,9 18,3 8,0 ZZW 11,0 1007,1 68 - 596
17:44 25,3 18,3 11,0 ZZW 13,0 1007,1 66 - 508
17:49 25,3 18,5 10,0 ZZO 13,0 1007,1 66 - 466
17:54 25,2 18,5 8,0 ZZW 8,0 1007,1 67 - 441
17:59 25,1 18,3 8,0 ZW 10,0 1007,1 67 - 371
18:04 24,7 18,3 6,0 ZZW 10,0 1007,1 68 - 93
18:09 24,1 18,1 3,0 ZW 10,0 1007,1 69 - 83
Dagelijkse Samenvatting Zondag Jul 25 2021
Tijd Temp. ( °C ) Dew pt. ( °C ) Wind ( km/h ) van Windvlaag ( km/h ) Luchtdruk ( hPa ) Humid.( % ) Rainrate ( cm ) Zonneschijn ( W/m2 )
Hoog25,6 19,9 18,0 ZW ( 725/2052 ) 26,0 1007,8 97 28,96 916
Gemiddeld20,2 18,0 9,5 ZW #69/215 13,3 1005,9 88 17,70 402 #137/215
Laag17,2 16,4 -   2,0 1004,4 66 -  
Dagelijkse Tabular details for Zondag Jul 25 2021
Tijd Temp. ( °C ) Dew pt. ( °C ) Wind ( km/h ) van Windvlaag ( km/h ) Luchtdruk ( hPa ) Humid.( % ) Rainrate ( cm ) Zonneschijn ( W/m2 )
00:04 19,1 17,8 3,0 ZZO 3,0 1007,8 93 2,03 -
00:09 19,1 17,9 1,0 ZZO 3,0 1007,8 93 2,29 -
00:14 18,9 17,7 3,0 ZZO 3,0 1007,8 93 2,29 -
00:19 18,9 17,7 3,0 Zuiden 3,0 1007,5 93 2,54 -
00:24 18,8 17,6 3,0 ZW 5,0 1007,5 93 2,54 -
00:29 18,8 17,6 3,0 ZW 3,0 1007,1 93 2,29 -
00:34 18,8 17,6 3,0 ZW 5,0 1007,1 93 2,29 -
00:39 18,7 17,5 3,0 ZW 3,0 1007,1 93 2,29 -
00:44 18,7 17,7 3,0 Westen 5,0 1006,8 94 2,29 -
00:49 18,7 17,7 3,0 Westen 5,0 1006,8 94 2,03 -
00:54 18,6 17,6 3,0 WZW 6,0 1006,8 94 1,78 -
00:59 18,6 17,6 5,0 Westen 6,0 1006,8 94 1,52 -
01:04 18,6 17,6 6,0 WNW 6,0 1006,8 94 1,27 -
01:09 18,6 17,6 3,0 WNW 5,0 1006,8 94 1,02 -
01:14 18,6 17,6 1,0 WNW 3,0 1006,8 94 0,76 -
01:19 18,5 17,5 1,0 WNW 3,0 1006,8 94 0,51 -
01:24 18,6 17,6 3,0 WNW 3,0 1006,8 94 0,51 -
01:29 18,5 17,5   Windstil 3,0 1006,8 94 0,76 -
01:34 18,5 17,5 1,0 WNW 2,0 1006,8 94 0,76 -
01:39 18,6 17,6 3,0 WNW 5,0 1006,8 94 0,76 -
01:44 18,5 17,5 5,0 WNW 5,0 1006,4 94 1,02 -
01:49 18,4 17,4 5,0 WNW 6,0 1006,4 94 1,02 -
01:54 18,5 17,7 5,0 NW 6,0 1006,4 95 1,02 -
01:59 18,5 17,5 1,0 NW 3,0 1006,4 94 1,02 -
02:04 18,5 17,5 3,0 NW 3,0 1006,4 94 1,02 -
02:09 18,4 17,6 5,0 NW 5,0 1006,1 95 1,27 -
02:14 18,4 17,6 3,0 WNW 6,0 1006,1 95 1,52 -
02:19 18,4 17,6 6,0 NW 8,0 1005,8 95 1,52 -
02:24 18,3 17,5 8,0 NNW 8,0 1005,8 95 1,78 -
02:29 18,3 17,5 6,0 NW 8,0 1005,8 95 2,03 -
02:34 18,3 17,5 6,0 NW 8,0 1005,8 95 2,03 -
02:39 18,2 17,2 13,0 NNW 13,0 1005,8 94 1,78 -
02:44 18,2 17,2 6,0 WNW 13,0 1005,8 94 1,78 -
02:49 18,2 17,2 13,0 NW 15,0 1005,8 94 1,78 -
02:54 18,2 17,4 14,0 NW 15,0 1005,8 95 2,03 -
02:59 18,3 17,5 14,0 NW 18,0 1005,8 95 2,29 -
03:04 18,3 17,5 14,0 NW 16,0 1005,8 95 2,29 -
03:09 18,3 17,5 11,0 NW 15,0 1005,4 95 2,29 -
03:14 18,4 17,6 13,0 NW 13,0 1005,4 95 2,29 -
03:19 18,3 17,5 10,0 WNW 19,0 1005,1 95 2,29 -
03:24 18,3 17,5 14,0 NW 18,0 1005,1 95 1,78 -
03:29 18,3 17,5 11,0 WNW 21,0 1005,1 95 1,52 -
03:34 18,3 17,5 11,0 NW 21,0 1004,7 95 1,27 -
03:39 18,4 17,6 10,0 NNW 15,0 1005,1 95 1,78 -
03:44 18,4 17,6 6,0 NW 15,0 1005,1 95 3,30 -
03:49 18,4 17,6 10,0 WNW 10,0 1005,1 95 4,83 -
03:54 18,3 17,5 13,0 WNW 15,0 1004,7 95 5,08 -
03:59 18,3 17,5 8,0 NW 16,0 1004,7 95 5,33 -
04:04 18,3 17,5 8,0 WNW 13,0 1004,4 95 5,59 -
04:09 18,3 17,5 13,0 WNW 16,0 1004,4 95 5,59 -
04:14 18,3 17,5 11,0 WNW 15,0 1004,4 95 5,84 -
04:19 18,3 17,5 10,0 WNW 11,0 1004,4 95 5,84 -
04:24 18,2 17,4 6,0 Westen 11,0 1004,4 95 6,35 -
04:29 18,2 17,4 3,0 NNW 11,0 1004,7 95 6,60 -
04:34 18,2 17,4 5,0 Westen 6,0 1004,7 95 7,11 -
04:39 18,2 17,4 3,0 ZW 6,0 1004,7 95 7,37 -
04:44 18,2 17,4 11,0 ZZW 11,0 1004,7 95 7,37 -
04:49 18,1 17,5 10,0 ZZW 13,0 1004,7 96 7,87 -
04:54 18,1 17,5 11,0 ZZW 15,0 1004,7 96 8,89 -
04:59 18,1 17,5 18,0 ZW 18,0 1004,7 96 10,41 -
05:04 17,9 17,1 13,0 WZW 18,0 1004,7 95 11,94 -
05:09 17,6 16,8 16,0 ZW 21,0 1004,7 95 13,72 -
05:14 17,3 16,5 16,0 ZW 18,0 1004,4 95 15,49 -
05:19 17,2 16,4 13,0 ZW 16,0 1004,4 95 17,02 -
05:24 17,2 16,6 11,0 ZW 16,0 1004,7 96 18,29 -
05:29 17,2 16,6 14,0 WZW 18,0 1004,7 96 20,83 -
05:34 17,3 16,7 11,0 ZW 18,0 1004,7 96 23,11 -
05:39 17,3 16,7 14,0 WZW 18,0 1004,7 96 25,40 -
05:44 17,3 16,7 14,0 ZW 18,0 1004,7 96 26,92 -
05:49 17,3 16,7 13,0 WZW 21,0 1004,4 96 27,69 -
05:54 17,3 16,7 11,0 WZW 21,0 1004,4 96 27,69 -
05:59 17,2 16,6 13,0 WZW 26,0 1004,4 96 27,69 -
06:04 17,2 16,6 10,0 WZW 18,0 1004,7 96 28,19 -
06:09 17,3 16,7 8,0 WZW 18,0 1004,7 96 28,70 -
06:14 17,3 16,7 10,0 Westen 16,0 1004,4 96 28,19 -
06:19 17,4 16,8 10,0 NW 16,0 1004,4 96 27,94 -
06:24 17,4 16,6 18,0 NW 19,0 1004,4 95 28,96 -
06:29 17,5 16,9 14,0 WNW 19,0 1004,4 96 28,45 -
06:34 17,6 17,0 14,0 WNW 18,0 1004,4 96 28,45 5
06:39 17,6 17,0 14,0 WNW 18,0 1004,4 96 28,19 5
06:44 17,6 17,0 11,0 WNW 23,0 1004,4 96 27,94 7
06:49 17,5 16,9 14,0 WNW 19,0 1004,4 96 28,70 9
06:54 17,5 16,9 11,0 Westen 23,0 1004,4 96 28,96 11
06:59 17,5 16,9 6,0 Westen 23,0 1004,4 96 28,70 12
07:04 17,5 16,9 11,0 WZW 11,0 1004,4 96 27,94 12
07:09 17,6 17,0 6,0 WZW 11,0 1004,4 96 27,18 16
07:14 17,6 17,0 6,0 WZW 10,0 1004,4 96 27,18 21
07:19 17,6 17,0 10,0 WZW 10,0 1004,4 96 26,92 23
07:24 17,7 17,2 11,0 WZW 11,0 1004,4 97 25,91 18
07:29 17,8 17,2 6,0 WZW 13,0 1004,4 96 23,88 19
07:34 17,8 17,2 6,0 WNW 13,0 1004,4 96 22,10 11
07:39 17,8 17,2 5,0 WNW 11,0 1004,7 96 19,56 11
07:44 17,8 17,2 10,0 WNW 11,0 1004,7 96 17,78 12
07:49 17,8 17,2 6,0 WZW 15,0 1004,7 96 14,48 28
07:54 17,9 17,3 8,0 ZW 15,0 1004,7 96 10,92 32
07:59 17,9 17,3 11,0 WZW 11,0 1004,7 96 9,65 35
08:04 17,9 17,3 10,0 WZW 15,0 1004,7 96 8,13 39
08:09 17,9 17,3 14,0 WZW 15,0 1004,7 96 7,11 33
08:14 17,9 17,3 8,0 WZW 13,0 1004,7 96 5,33 25
08:19 17,9 17,3 10,0 WZW 10,0 1004,7 96 4,32 18
08:24 17,9 17,3 11,0 ZW 11,0 1004,7 96 3,56 23
08:29 17,9 17,3 13,0 ZW 13,0 1004,7 96 3,30 32
08:34 17,9 17,3 8,0 ZW 11,0 1004,7 96 3,05 42
08:39 17,9 17,3 8,0 WZW 13,0 1004,7 96 2,79 51
08:44 17,9 17,3 8,0 ZW 8,0 1004,7 96 2,79 63
08:49 17,9 17,3 8,0 ZW 8,0 1004,7 96 2,79 74
08:54 17,9 17,3 8,0 ZW 11,0 1004,7 96 3,05 83
08:59 17,9 17,3 13,0 ZW 15,0 1004,7 96 3,05 88
09:04 17,8 17,2 13,0 ZW 18,0 1004,7 96 2,79 105
09:09 17,8 17,2 8,0 ZW 13,0 1004,7 96 2,54 130
09:14 17,8 17,2 13,0 ZW 18,0 1004,7 96 2,29 144
09:19 17,8 17,2 14,0 ZW 16,0 1005,1 96 2,03 151
09:24 17,9 17,3 10,0 ZW 13,0 1005,1 96 1,78 144
09:29 17,9 17,3 13,0 ZW 16,0 1005,1 96 1,52 158
09:34 18,1 17,5 11,0 ZW 18,0 1005,1 96 1,52 183
09:39 18,1 17,5 11,0 ZW 16,0 1005,1 96 1,52 174
09:44 18,2 17,6 14,0 ZW 18,0 1005,1 96 1,27 156
09:49 18,3 17,7 10,0 WZW 13,0 1005,1 96 1,02 169
09:54 18,3 17,7 13,0 ZW 18,0 1005,1 96 0,76 190
09:59 18,4 17,8 8,0 ZW 13,0 1005,1 96 0,51 195
10:04 18,6 17,9 6,0 ZW 13,0 1005,4 96 0,51 179
10:09 18,6 17,9 8,0 ZW 18,0 1005,4 96 0,25 163
10:14 18,5 17,8 11,0 ZW 18,0 1005,4 96 0,25 200
10:19 18,7 18,0 10,0 ZW 15,0 1005,4 96 0,25 178
10:24 18,7 18,0 13,0 ZW 16,0 1005,8 96 - 142
10:29 18,7 17,9 13,0 ZW 15,0 1005,8 95 - 167
10:34 18,8 18,1 10,0 ZW 15,0 1005,8 96 - 250
10:39 19,0 18,2 13,0 ZZW 13,0 1005,8 96 - 292
10:44 19,2 18,4 11,0 WZW 15,0 1005,8 95 - 302
10:49 19,3 18,4 13,0 ZW 16,0 1005,8 95 - 308
10:54 19,3 18,3 13,0 ZW 21,0 1005,8 94 - 311
10:59 19,6 18,6 10,0 ZW 21,0 1005,8 95 - 297
11:04 19,7 18,7 10,0 ZW 15,0 1006,1 94 - 294
11:09 19,7 18,5 10,0 ZW 13,0 1006,1 93 - 313
11:14 19,9 18,7 11,0 ZW 15,0 1006,1 93 - 350
11:19 20,1 18,8 14,0 ZZW 18,0 1006,1 93 - 480
11:24 20,1 18,5 16,0 WZW 18,0 1006,1 91 - 531
11:29 20,2 18,7 11,0 WZW 16,0 1006,1 91 - 371
11:34 20,2 18,5 18,0 WZW 18,0 1006,1 90 - 388
11:39 20,4 18,8 10,0 ZW 10,0 1006,4 91 - 526
11:44 20,8 19,3 8,0 ZW 18,0 1006,4 91 - 526
11:49 20,8 18,9 10,0 ZW 16,0 1006,4 89 - 675
11:54 21,1 19,1 14,0 ZW 19,0 1006,4 89 - 675
11:59 21,3 19,1 13,0 ZW 16,0 1006,4 88 - 728
12:04 21,7 19,3 11,0 ZW 21,0 1006,4 87 - 837
12:09 21,7 19,3 11,0 ZW 21,0 1006,4 86 - 671
12:14 21,6 19,0 13,0 ZW 15,0 1006,4 85 - 916
12:19 21,6 19,0 13,0 ZW 15,0 1006,4 85 - 916
12:24 21,7 19,3 11,0 ZW 13,0 1006,4 86 - 853
12:29 21,9 19,0 10,0 ZZW 16,0 1006,4 84 - 840
12:34 21,9 19,1 13,0 Zuiden 18,0 1006,4 84 - 766
12:39 21,9 18,9 13,0 ZZW 18,0 1006,4 83 - 410
12:44 21,8 18,9 11,0 Westen 11,0 1006,4 84 - 369
12:49 21,8 19,1 5,0 ZW 10,0 1006,4 85 - 295
12:54 21,9 19,1 6,0 WZW 6,0 1006,4 84 - 664
12:59 22,1 19,3 6,0 WZW 10,0 1006,4 84 - 766
13:04 22,2 19,4 10,0 ZW 13,0 1006,4 84 - 784
13:09 22,6 19,6 10,0 ZW 16,0 1006,4 84 - 831
13:14 22,7 19,5 5,0 WZW 16,0 1006,4 82 - 788
13:19 23,1 19,9 16,0 ZW 18,0 1006,4 83 - 817
13:24 23,1 19,4 11,0 ZZW 18,0 1006,4 80 - 854
13:29 23,2 19,7 16,0 ZW 16,0 1006,4 81 - 824
13:34 23,3 19,5 10,0 ZW 16,0 1006,4 79 - 788
13:39 23,2 19,4 10,0 ZZW 11,0 1006,4 79 - 793
13:44 23,1 19,1 6,0 WZW 11,0 1006,4 78 - 791
13:49 23,5 19,1 13,0 WZW 13,0 1006,4 78 - 777
13:54 23,6 19,4 10,0 WZW 11,0 1006,4 78 - 788
13:59 23,7 19,2 11,0 ZW 11,0 1006,8 77 - 830
14:04 23,7 19,3 10,0 ZZW 13,0 1006,8 78 - 824
14:06 23,6 19,5 8,0 WZW 11,0 1006,8 78 - 802
14:29 24,3 19,4 8,0 ZZW 13,0 1006,8 74 - 786
14:34 24,5 19,7 10,0 ZW 13,0 1006,8 75 - 793
14:39 24,6 19,9 8,0 Zuiden 13,0 1006,8 75 - 793
14:44 24,2 19,6 13,0 ZW 16,0 1006,8 76 - 315
14:49 24,3 19,4 10,0 ZZW 13,0 1006,8 75 - 288
14:54 24,7 19,9 18,0 ZZW 19,0 1006,8 76 - 766
14:59 24,7 19,4 10,0 ZZW 18,0 1006,8 73 - 766
15:04 24,6 19,3 11,0 ZZW 16,0 1006,8 73 - 487
15:09 24,2 19,3 10,0 ZZW 15,0 1006,8 75 - 408
15:14 24,1 19,3 8,0 ZZW 10,0 1006,8 75 - 301
15:19 23,9 19,2 14,0 Zuiden 15,0 1006,8 75 - 367
15:24 24,0 19,0 11,0 ZZW 13,0 1007,1 74 - 476
15:29 24,6 19,6 8,0 ZZW 15,0 1007,1 76 - 881
15:34 24,9 19,3 16,0 ZZW 16,0 1007,1 72 - 817
15:39 25,2 19,5 11,0 ZZW 16,0 1007,1 71 - 817
15:44 25,4 19,5 13,0 ZW 16,0 1007,1 70 - 809
15:49 25,4 19,3 11,0 ZW 18,0 1007,1 69 - 765
15:54 25,4 19,3 14,0 Zuiden 18,0 1007,1 69 - 729
15:59 25,4 19,0 13,0 ZZO 18,0 1007,1 68 - 768
16:04 25,6 19,2 11,0 ZZW 18,0 1007,1 68 - 726
16:09 25,6 19,0 13,0 ZZW 16,0 1007,1 67 - 756
16:14 25,3 19,2 11,0 ZZW 16,0 1007,1 71 - 343
16:19 24,7 19,1 13,0 ZZW 15,0 1007,1 71 - 325
16:24 24,5 18,7 11,0 ZZW 11,0 1007,1 70 - 348
16:29 24,5 18,7 14,0 ZZW 16,0 1007,1 70 - 366
16:34 24,6 19,0 6,0 ZZW 11,0 1007,1 71 - 411
16:39 24,6 18,8 6,0 WZW 13,0 1007,1 70 - 406
16:44 25,1 19,2 6,0 ZZW 10,0 1007,1 70 - 830
16:49 25,3 19,1 10,0 ZZW 11,0 1007,1 69 - 464
16:54 25,3 18,5 10,0 Zuiden 11,0 1007,1 67 - 464
16:59 24,8 18,7 11,0 Zuiden 15,0 1007,1 69 - 283
17:04 24,6 19,0 6,0 Zuiden 8,0 1007,1 71 - 747
17:09 25,3 19,1 10,0 ZW 13,0 1007,1 71 - 747
17:14 25,5 18,9 8,0 ZW 10,0 1007,1 67 - 696
17:19 25,3 18,4 8,0 ZZW 13,0 1007,1 68 - 272
17:24 24,7 18,4 5,0 Zuiden 8,0 1007,1 68 - 343
17:29 24,6 18,4 8,0 Zuiden 11,0 1007,1 69 - 281
17:34 24,6 18,1 10,0 ZZW 10,0 1007,1 67 - 596
17:39 24,9 18,3 8,0 ZZW 11,0 1007,1 68 - 596
17:44 25,3 18,3 11,0 ZZW 13,0 1007,1 66 - 508
17:49 25,3 18,5 10,0 ZZO 13,0 1007,1 66 - 466
17:54 25,2 18,5 8,0 ZZW 8,0 1007,1 67 - 441
17:59 25,1 18,3 8,0 ZW 10,0 1007,1 67 - 371
18:04 24,7 18,3 6,0 ZZW 10,0 1007,1 68 - 93
18:09 24,1 18,1 3,0 ZW 10,0 1007,1 69 - 83

Download your copy of this data-set  here

Our weather-data as stored at Weather Underground. Script ontwikkeld door Jim McMurry. Rewritten for template use Leuven-Template

Apparatuur in gebruik:

Weerstation
Davis Vantage pro 2

Weerprogramma
Meteobridge

Weercomputer
Meteobridge Nano SD

Webleverancier
Versio

Davis Vantage pro 2

Meteobridge

Meteobridge Nano SD

Versio